Weather History for Reno, NV

Change the Weather History Date:

Thursday, February 21, 2013

  Actual Average Record
Temperature  
Mean Temperature 37 °F 41 °F  
Max Temperature 46 °F 53 °F 74 °F (1965)
Min Temperature 27 °F 30 °F 0 °F (1897)
Degree Days  
Heating Degree Days 28 24  
Month to date heating degree days 554 542  
Since 1 July heating degree days 3301 3479  
Cooling Degree Days 0 0  
Month to date cooling degree days 0 0  
Year to date cooling degree days 0 0  
Moisture  
Dew Point 14 °F    
Average Humidity 44    
Maximum Humidity 68    
Minimum Humidity 20    
Precipitation  
Precipitation 0.00 in 0.04 in 0.75 in (1936)
Month to date precipitation T 0.74  
Year to date precipitation 0.12 1.77  
Snow  
Snow 0.00 in 0.20 in 10.90 in (2010)
Month to date snowfall T 3.7  
Since 1 July snowfall 9.3 17.7  
Snow Depth 0.00 in    
Sea Level Pressure  
Sea Level Pressure 30.06 in    
Wind  
Wind Speed 5 mph (NNE)    
Max Wind Speed 15 mph    
Max Gust Speed 20 mph    
Visibility 10 miles    
Events      
T = Trace of Precipitation, MM = Missing Value Source: NWS Daily Summary

Daily Weather History Graph

Daily Weather History Graph

Search for Another Location

Airport:

Trip Planner

Search our weather history database for the weather conditions in past years. The results will help you decide how hot, cold, wet, or windy it might be!

Date:

Astronomy

Feb. 21, 2013 Rise Set
Actual Time 6:42 AM PST 5:42 PM PST
Civil Twilight 6:15 AM PST 6:10 PM PST
Nautical Twilight 5:44 AM PST 6:41 PM PST
Astronomical Twilight 5:13 AM PST 7:12 PM PST
Moon 2:03 PM PST (2/21) 3:50 AM PST (2/21)
Length of Visible Light 11h 54m
Length of Day
11h 00m
Waxing Gibbous, 84% of the Moon is Illuminated
Feb 21
Waxing Gibbous
Feb 25
Full
Mar 4
Last Quarter
Mar 11
New
Mar 19
First Quarter

Hourly Weather History & Observations

Time (PST) Temp. Windchill Dew Point Humidity Pressure Visibility Wind Dir Wind Speed Gust Speed Precip Events Conditions
12:55 AM 28.9 °F - 14.0 °F 54% 29.93 in 10.0 mi Calm Calm - N/A   Scattered Clouds
1:55 AM 30.0 °F 25.2 °F 14.0 °F 51% 29.96 in 10.0 mi NNE 4.6 mph - N/A   Mostly Cloudy
2:55 AM 30.9 °F - 15.1 °F 52% 29.95 in 10.0 mi Calm Calm - N/A   Overcast
3:55 AM 32.0 °F 23.0 °F 15.1 °F 50% 29.97 in 10.0 mi NNW 11.5 mph - N/A   Mostly Cloudy
4:55 AM 32.0 °F 24.8 °F 15.1 °F 50% 30.00 in 10.0 mi NNW 8.1 mph - N/A   Scattered Clouds
5:55 AM 30.0 °F 25.2 °F 15.1 °F 54% 30.02 in 10.0 mi North 4.6 mph - N/A   Scattered Clouds
6:55 AM 27.0 °F 19.5 °F 17.1 °F 66% 30.03 in 10.0 mi SSE 6.9 mph - N/A   Partly Cloudy
7:55 AM 30.9 °F 26.2 °F 19.0 °F 61% 30.09 in 10.0 mi NE 4.6 mph - N/A   Scattered Clouds
8:55 AM 34.0 °F 26.0 °F 19.0 °F 54% 30.12 in 10.0 mi North 10.4 mph - N/A   Scattered Clouds
9:55 AM 37.0 °F 29.8 °F 18.0 °F 46% 30.13 in 10.0 mi NNE 10.4 mph - N/A   Scattered Clouds
10:55 AM 37.0 °F 31.6 °F 17.1 °F 44% 30.13 in 10.0 mi NNW 6.9 mph - N/A   Scattered Clouds
11:55 AM 39.9 °F 37.8 °F 12.9 °F 33% 30.11 in 10.0 mi NE 3.5 mph - N/A   Scattered Clouds
12:55 PM 42.1 °F 40.2 °F 12.9 °F 31% 30.07 in 10.0 mi Variable 3.5 mph - N/A   Partly Cloudy
1:55 PM 44.1 °F 41.5 °F 10.9 °F 26% 30.06 in 10.0 mi SSW 4.6 mph - N/A   Partly Cloudy
2:55 PM 44.1 °F - 9.0 °F 24% 30.04 in 10.0 mi Calm Calm - N/A   Scattered Clouds
3:55 PM 46.0 °F 41.4 °F 10.0 °F 23% 30.04 in 10.0 mi NNE 9.2 mph - N/A   Mostly Cloudy
4:55 PM 45.0 °F 41.8 °F 10.0 °F 24% 30.04 in 10.0 mi NNE 5.8 mph - N/A   Mostly Cloudy
5:55 PM 42.1 °F 36.6 °F 5.0 °F 22% 30.06 in 10.0 mi NE 9.2 mph - N/A   Mostly Cloudy
6:55 PM 39.9 °F 35.8 °F 10.0 °F 29% 30.09 in 10.0 mi NNE 5.8 mph - N/A   Mostly Cloudy
7:55 PM 37.9 °F 34.4 °F 12.0 °F 35% 30.10 in 10.0 mi North 4.6 mph - N/A   Scattered Clouds
8:55 PM 37.0 °F 33.3 °F 12.0 °F 36% 30.12 in 10.0 mi NNE 4.6 mph - N/A   Scattered Clouds
9:55 PM 37.0 °F 32.4 °F 12.9 °F 37% 30.12 in 10.0 mi North 5.8 mph - N/A   Scattered Clouds
10:55 PM 35.1 °F - 14.0 °F 42% 30.14 in 10.0 mi Calm Calm - N/A   Scattered Clouds
11:55 PM 35.1 °F - 14.0 °F 42% 30.12 in 10.0 mi Calm Calm - N/A   Mostly Cloudy